Weather History for KCRP - December, 2012

Change the Weather History Date:

Saturday, December 22, 2012

  Actual Average Record
Temperature  
Mean Temperature 61 °F 57 °F  
Max Temperature 75 °F 67 °F 84 °F (1988)
Min Temperature 47 °F 48 °F 20 °F (1989)
Degree Days  
Heating Degree Days 4 9  
Month to date heating degree days 74 168  
Since 1 July heating degree days 113 269  
Cooling Degree Days 0 1  
Month to date cooling degree days 130 40  
Year to date cooling degree days 4501 3515  
Growing Degree Days 12 (Base 50)    
Moisture  
Dew Point 49 °F    
Average Humidity 62    
Maximum Humidity 77    
Minimum Humidity 46    
Precipitation  
Precipitation 0.00 in 0.06 in 0.65 in (1986)
Month to date precipitation 0.02 1.25  
Year to date precipitation 18.81 31.18  
Snow  
Snow 0.00 in - - ()
Month to date snowfall 0.0  
Since 1 July snowfall 0.0  
Snow Depth 0.00 in    
Sea Level Pressure  
Sea Level Pressure 30.23 in    
Wind  
Wind Speed 12 mph (ESE)    
Max Wind Speed 25 mph    
Max Gust Speed 29 mph    
Visibility 10 miles    
Events      
T = Trace of Precipitation, MM = Missing Value Source: NWS Daily Summary

Daily Weather History Graph

Daily Weather History Graph

Search for Another Location

Airport or City:

Trip Planner

Search our weather history database for the weather conditions in past years. The results will help you decide how hot, cold, wet, or windy it might be!

Date:

Astronomy

Dec. 22, 2012 Rise Set
Actual Time 7:17 AM CST 5:40 PM CST
Civil Twilight 6:51 AM CST 6:06 PM CST
Nautical Twilight 6:22 AM CST 6:35 PM CST
Astronomical Twilight 5:53 AM CST 7:04 PM CST
Moon 1:45 PM CST (12/22) 2:19 AM CST (12/22)
Length of Visible Light 11h 14m
Length of Day
10h 23m
Waxing Gibbous, 74% of the Moon is Illuminated
Dec 22
Waxing Gibbous
Dec 28
Full
Jan 4
Last Quarter
Jan 11
New
Jan 18
First Quarter

Hourly Weather History & Observations

Time (CST) Temp. Dew Point Humidity Pressure Visibility Wind Dir Wind Speed Gust Speed Precip Events Conditions
12:51 AM 52.0 °F 35.1 °F 53% 30.36 in 10.0 mi NE 8.1 mph - N/A   Partly Cloudy
1:51 AM 53.1 °F 33.1 °F 47% 30.34 in 10.0 mi NE 9.2 mph - N/A   Partly Cloudy
2:51 AM 50.0 °F 34.0 °F 54% 30.34 in 10.0 mi NE 8.1 mph - N/A   Partly Cloudy
3:51 AM 51.8 °F 37.4 °F 58% 30.32 in 10.0 mi NE 9.2 mph - N/A   Partly Cloudy
4:51 AM 50.0 °F 37.9 °F 63% 30.31 in 10.0 mi ENE 4.6 mph - N/A   Clear
5:51 AM 48.9 °F 39.0 °F 69% 30.30 in 10.0 mi NE 5.8 mph - N/A   Clear
6:51 AM 52.0 °F 45.0 °F 77% 30.30 in 10.0 mi ENE 6.9 mph - N/A   Partly Cloudy
7:51 AM 52.0 °F 45.0 °F 77% 30.32 in 10.0 mi NNE 6.9 mph - N/A   Clear
8:51 AM 63.0 °F 51.1 °F 65% 30.33 in 10.0 mi Calm Calm - N/A   Partly Cloudy
9:51 AM 72.0 °F 51.1 °F 48% 30.32 in 10.0 mi SSE 17.3 mph 24.2 mph N/A   Scattered Clouds
10:51 AM 73.9 °F 51.1 °F 45% 30.30 in 10.0 mi SE 19.6 mph - N/A   Scattered Clouds
11:51 AM 73.9 °F 51.1 °F 45% 30.28 in 10.0 mi SE 17.3 mph - N/A   Mostly Cloudy
12:51 PM 73.4 °F 51.8 °F 47% 30.23 in 10.0 mi SE 19.6 mph - N/A   Mostly Cloudy
1:51 PM 73.0 °F 54.0 °F 51% 30.19 in 10.0 mi SSE 21.9 mph - N/A   Overcast
2:51 PM 72.0 °F 54.0 °F 53% 30.18 in 10.0 mi SSE 21.9 mph - N/A   Overcast
3:51 PM 72.0 °F 55.0 °F 55% 30.17 in 10.0 mi SSE 17.3 mph - N/A   Overcast
4:51 PM 72.0 °F 57.0 °F 59% 30.16 in 10.0 mi SSE 13.8 mph - N/A   Overcast
5:51 PM 71.1 °F 57.0 °F 61% 30.14 in 10.0 mi SSE 13.8 mph - N/A   Mostly Cloudy
6:51 PM 71.1 °F 57.0 °F 61% 30.15 in 10.0 mi SSE 11.5 mph - N/A   Mostly Cloudy
7:51 PM 70.0 °F 57.9 °F 65% 30.14 in 10.0 mi SSE 12.7 mph - N/A   Overcast
8:51 PM 69.1 °F 57.9 °F 68% 30.14 in 10.0 mi SSE 10.4 mph - N/A   Scattered Clouds
9:51 PM 66.9 °F 57.9 °F 73% 30.12 in 10.0 mi SSE 9.2 mph - N/A   Scattered Clouds
10:51 PM 66.0 °F 57.9 °F 75% 30.11 in 10.0 mi SSE 6.9 mph - N/A   Partly Cloudy
11:51 PM 62.1 °F 55.0 °F 78% 30.10 in 10.0 mi SSE 6.9 mph - N/A   Clear